Stations météo

réclame
Mon MeteoGroup
Baltasound, Grande-Bretagne (3002): Température de l'air & dewpoint: 03.07.2020 08:00:00 - 09.07.2020 08:00:00 (BST)Baltasound, Grande-Bretagne (3002): Température de l'air -20cm: 03.07.2020 08:00:00 - 09.07.2020 08:00:00 (BST)Baltasound, Grande-Bretagne (3002): Vitesse du vent & gusts: 03.07.2020 08:00:00 - 09.07.2020 08:00:00 (BST)Baltasound, Grande-Bretagne (3002): Direction du vent: 03.07.2020 08:00:00 - 09.07.2020 08:00:00 (BST)Baltasound, Grande-Bretagne (3002): reduced air pressure: 03.07.2020 08:00:00 - 09.07.2020 08:00:00 (BST)Baltasound, Grande-Bretagne (3002): visibility: 03.07.2020 08:00:00 - 09.07.2020 08:00:00 (BST)Baltasound, Grande-Bretagne (3002): Quantités de précipitations: 03.07.2020 08:00:00 - 09.07.2020 08:00:00 (BST)
Date & Time tt [°C] td [°C] tt -20cm [°C] ff [km/h] ff [knt] fx [km/h] fx [knt] dd ppp [hPa] vv [km] rr [mm]
09.07.2020 08:00:00 11,4 9,4 - 22 12 - - WSW 1013,1 35 0,0
09.07.2020 07:00:00 10,7 9,5 - 16 9 - - SW 1013,0 50 0,0
09.07.2020 06:00:00 10,1 9,4 - 15 8 - - SW 1013,1 17 0,0
09.07.2020 05:00:00 9,5 8,9 - 16 9 - - SSW 1013,1 6 0,0
09.07.2020 04:00:00 8,8 8,1 - 16 9 - - SSW 1013,1 35 0,0
09.07.2020 03:00:00 9,5 8,8 - 21 11 - - SW 1013,3 27 0,0
09.07.2020 02:00:00 8,9 8,0 - 18 10 - - SSW 1013,5 45 0,0
09.07.2020 01:00:00 9,3 8,3 - 16 9 - - SSW 1013,9 9 0,0
09.07.2020 00:00:00 9,8 8,8 - 18 10 - - SSW 1014,2 12 0,0
08.07.2020 23:00:00 10,6 8,5 - 15 8 - - SW 1014,2 5 0,0
08.07.2020 22:00:00 10,9 8,5 - 16 9 - - SW 1014,1 40 0,0
08.07.2020 21:00:00 11,0 7,5 - 22 12 - - WSW 1014,0 45 0,0
08.07.2020 20:00:00 11,9 7,6 - 22 12 - - WSW 1014,1 40 0,0
08.07.2020 19:00:00 12,2 7,2 - 24 13 - - W 1014,2 35 0,0
08.07.2020 18:00:00 12,7 7,4 - 26 14 - - W 1014,4 30 0,0
08.07.2020 17:00:00 12,7 7,2 - 26 14 - - W 1014,6 35 0,0
08.07.2020 16:00:00 13,4 8,1 - 26 14 - - W 1014,7 30 0,0
08.07.2020 15:00:00 13,0 7,9 - 28 15 - - W 1014,7 24 0,0
08.07.2020 14:00:00 13,1 8,0 - 28 15 - - W 1014,8 30 0,0
08.07.2020 13:00:00 12,7 7,2 - 29 16 - - W 1014,5 40 0,0
08.07.2020 12:00:00 12,6 8,0 - 28 15 - - W 1014,4 30 0,0
08.07.2020 11:00:00 12,3 8,1 - 26 14 - - WNW 1014,2 18 0,0
08.07.2020 10:00:00 11,5 7,9 12,7 28 15 - - W 1014,0 40 0,0
08.07.2020 09:00:00 10,9 7,5 - 22 12 - - WNW 1013,7 30 0,0
08.07.2020 08:00:00 9,8 7,6 - 26 14 - - W 1013,4 40 0,0
08.07.2020 07:00:00 9,8 7,3 - 26 14 - - WNW 1013,4 13 0,0
08.07.2020 06:00:00 9,7 7,3 - 22 12 - - W 1013,4 25 0,0
08.07.2020 05:00:00 8,7 6,0 - 18 10 - - W 1013,5 35 0,0
08.07.2020 04:00:00 9,4 5,5 - 18 10 - - WNW 1013,6 40 0,0
08.07.2020 03:00:00 9,2 4,9 - 21 11 - - WNW 1013,8 40 0,0
08.07.2020 02:00:00 8,6 4,1 - 18 10 - - NW 1014,0 35 0,0
08.07.2020 01:00:00 9,2 4,2 - 18 10 - - WNW 1014,0 35 0,0
08.07.2020 00:00:00 9,2 4,7 - 21 11 - - NW 1014,0 35 0,0
07.07.2020 23:00:00 9,3 5,2 - 18 10 - - NW 1013,9 21 0,0
07.07.2020 22:00:00 9,4 5,3 - 22 12 - - NW 1013,6 27 0,0
07.07.2020 21:00:00 9,7 5,8 - 26 14 - - NW 1013,4 35 0,0
07.07.2020 20:00:00 10,1 5,7 - 29 16 - - NW 1013,3 23 0,0
07.07.2020 19:00:00 10,4 5,9 - 29 16 - - NW 1012,8 28 0,0
07.07.2020 18:00:00 9,5 7,5 - 26 14 - - NW 1012,8 5 0,0
07.07.2020 17:00:00 10,2 7,9 - 22 12 - - NW 1012,8 30 0,0
07.07.2020 16:00:00 9,8 8,2 - 29 16 - - NW 1012,5 6 0,0
07.07.2020 15:00:00 9,8 7,1 - 26 14 - - NW 1012,4 5 0,0
07.07.2020 14:00:00 11,1 6,2 - 29 16 - - WNW 1011,9 24 0,0
07.07.2020 13:00:00 10,2 6,6 - 24 13 - - NW 1011,7 22 0,0
07.07.2020 12:00:00 10,7 6,1 - 28 15 - - NW 1011,1 35 0,0
07.07.2020 11:00:00 10,8 6,3 - 31 17 - - NW 1010,9 26 0,0
07.07.2020 10:00:00 9,8 6,2 12,7 28 15 - - WNW 1010,6 45 0,0
07.07.2020 09:00:00 9,1 6,3 - 29 16 - - NW 1010,2 45 0,0
07.07.2020 08:00:00 9,3 6,4 - 29 16 - - WNW 1009,8 28 0,0
07.07.2020 07:00:00 8,2 6,5 - 29 16 - - NW 1009,5 8 0,0
07.07.2020 06:00:00 8,6 6,2 - 29 16 - - WNW 1009,2 35 0,0
07.07.2020 05:00:00 8,3 5,8 - 28 15 - - WNW 1008,8 40 0,0
07.07.2020 04:00:00 8,3 5,6 - 24 13 - - WNW 1008,7 40 0,0
07.07.2020 03:00:00 7,7 4,8 - 22 12 - - NW 1008,7 35 0,0
07.07.2020 02:00:00 7,9 5,0 - 21 11 - - NW 1008,5 40 0,0
07.07.2020 01:00:00 7,4 5,0 - 21 11 - - NW 1008,2 45 0,0
07.07.2020 00:00:00 7,2 5,1 - 24 13 - - NW 1007,9 35 0,0
06.07.2020 23:00:00 6,6 4,7 - 28 15 54 29 W 1007,8 11 0,0
06.07.2020 22:00:00 8,0 5,1 - 31 17 - - W 1007,4 30 0,0
06.07.2020 21:00:00 8,7 6,0 - 22 12 - - WNW 1007,3 30 0,0
06.07.2020 20:00:00 8,9 5,8 - 29 16 - - WNW 1007,1 29 0,0
06.07.2020 19:00:00 9,7 5,5 - 31 17 - - WNW 1006,9 45 0,0
06.07.2020 18:00:00 9,3 6,5 - 28 15 - - WNW 1006,8 13 0,0
06.07.2020 17:00:00 8,7 7,0 - 21 11 - - W 1006,6 40 0,0
06.07.2020 16:00:00 10,3 7,5 - 24 13 - - W 1006,8 18 0,0
06.07.2020 15:00:00 11,3 6,3 - 34 18 48 26 W 1007,2 19 0,0
06.07.2020 14:00:00 11,7 6,6 - 34 18 50 27 WNW 1007,3 16 0,0
06.07.2020 13:00:00 9,6 7,2 - 37 20 59 32 WNW 1007,3 35 0,0
06.07.2020 12:00:00 9,9 4,9 - 37 20 52 28 WNW 1006,8 9 0,0
06.07.2020 11:00:00 10,6 4,6 - 41 22 55 30 NW 1006,1 24 0,0
06.07.2020 10:00:00 9,7 4,7 13,0 41 22 57 31 NW 1005,4 45 0,0
06.07.2020 09:00:00 9,2 5,5 - 41 22 57 31 NW 1004,8 15 0,0
06.07.2020 08:00:00 9,1 7,4 - 39 21 55 30 NW 1003,9 22 0,0
06.07.2020 07:00:00 9,7 6,8 - 39 21 57 31 NW 1002,7 35 0,0
06.07.2020 06:00:00 9,6 5,5 - 39 21 55 30 NW 1001,8 27 0,0
06.07.2020 05:00:00 9,4 5,3 - 37 20 59 32 NW 1001,0 30 0,0
06.07.2020 04:00:00 9,4 5,7 - 39 21 59 32 NNW 1000,1 25 0,0
06.07.2020 03:00:00 9,8 7,2 - 37 20 57 31 NNW 999,2 20 0,0
06.07.2020 02:00:00 10,5 7,9 - 39 21 54 29 NNW 997,9 16 0,0
06.07.2020 01:00:00 11,1 8,3 - 37 20 54 29 N 996,8 18 0,0
06.07.2020 00:00:00 11,2 9,0 - 29 16 - - NNW 995,6 15 0,0
05.07.2020 23:00:00 11,4 9,4 - 26 14 - - N 994,6 16 0,0
05.07.2020 22:00:00 10,4 9,5 - 16 9 - - N 993,6 23 0,0
05.07.2020 21:00:00 11,2 9,4 - 21 11 - - NNW 992,5 13 0,0
05.07.2020 20:00:00 12,6 10,5 - 22 12 - - NW 991,8 22 0,0
05.07.2020 19:00:00 12,3 9,7 - 24 13 - - NW 991,5 50 0,0
05.07.2020 18:00:00 11,9 10,3 - 22 12 - - NW 991,1 40 0,0
05.07.2020 17:00:00 11,2 10,6 - 16 9 - - WNW 990,9 11 0,0
05.07.2020 16:00:00 11,1 10,3 - 15 8 - - WNW 990,6 21 0,0
05.07.2020 15:00:00 11,5 10,5 - 16 9 - - WNW 990,3 30 0,0
05.07.2020 14:00:00 11,5 10,3 - 13 7 - - NNW 990,0 9 0,0
05.07.2020 13:00:00 10,9 9,8 - 4 2 - - SW 989,7 4,8 0,0
05.07.2020 12:00:00 11,3 10,2 - 8 4 - - ENE 989,6 9 0,0
05.07.2020 11:00:00 11,3 10,5 - 8 4 - - ENE 989,6 45 0,0
05.07.2020 10:00:00 11,2 10,3 13,2 11 6 - - ENE 989,7 35 0,0
05.07.2020 09:00:00 11,0 10,4 - 4 2 - - ENE 989,8 13 0,0
05.07.2020 08:00:00 10,8 10,3 - 5 3 - - ESE 990,1 15 0,0
05.07.2020 07:00:00 10,7 10,3 - 9 5 - - ESE 990,3 12 0,0
05.07.2020 06:00:00 10,5 10,2 - 13 7 - - E 990,7 9 0,0
05.07.2020 05:00:00 10,2 10,0 - 9 5 - - E 991,6 7 0,0
05.07.2020 04:00:00 9,8 9,6 - 4 2 - - E 992,5 14 0,0
05.07.2020 03:00:00 9,8 9,5 - 15 8 - - SE 993,5 7 0,0
05.07.2020 02:00:00 9,9 9,5 - 9 5 - - ESE 994,5 15 0,0
05.07.2020 01:00:00 9,6 9,0 - 16 9 54 29 SSE 996,0 5 0,0
05.07.2020 00:00:00 10,0 9,4 - 13 7 - - S 996,6 28 0,0
04.07.2020 23:00:00 10,5 9,7 - 13 7 - - SSE 997,3 24 0,0
04.07.2020 22:00:00 10,5 9,5 - 9 5 - - SE 998,1 40 0,0
04.07.2020 21:00:00 10,7 9,6 - 9 5 - - SSE 998,8 45 0,0
04.07.2020 20:00:00 10,9 9,7 - 9 5 - - SSE 999,2 45 0,0
04.07.2020 19:00:00 11,4 9,9 - 8 4 - - SE 999,9 35 0,0
04.07.2020 18:00:00 11,5 10,3 - 2 1 - - NNE 1000,4 35 0,0
04.07.2020 17:00:00 11,1 10,4 - 13 7 - - SSE 1000,7 9 0,0
04.07.2020 16:00:00 11,0 10,2 - 15 8 - - SE 1001,2 40 0,0
04.07.2020 15:00:00 10,7 9,9 - 22 12 - - SE 1001,5 10 0,0
04.07.2020 14:00:00 11,3 10,1 - 13 7 - - SSE 1001,7 16 0,0
04.07.2020 13:00:00 11,8 9,2 - 22 12 - - ESE 1001,9 29 0,0
04.07.2020 12:00:00 11,9 7,7 - 21 11 - - ESE 1002,3 45 0,0
04.07.2020 11:00:00 11,9 7,7 - 21 11 - - ESE 1002,3 35 0,0
04.07.2020 10:00:00 11,5 7,3 13,5 21 11 - - ESE 1002,2 45 0,0
04.07.2020 09:00:00 11,3 7,0 - 22 12 - - SE 1002,5 45 0,0
04.07.2020 08:00:00 11,2 6,7 - 16 9 - - ESE 1002,8 50 0,0
04.07.2020 07:00:00 11,2 6,9 - 15 8 - - E 1002,6 40 0,0
04.07.2020 06:00:00 10,8 7,1 - 15 8 - - E 1002,8 50 0,0
04.07.2020 05:00:00 10,7 6,7 - 15 8 - - E 1002,9 50 0,0
04.07.2020 04:00:00 10,2 7,1 - 13 7 - - E 1002,9 45 0,0
04.07.2020 03:00:00 9,6 6,8 - 13 7 - - E 1003,0 50 0,0
04.07.2020 02:00:00 8,7 5,8 - 9 5 - - E 1003,3 50 0,0
04.07.2020 01:00:00 9,0 5,7 - 13 7 - - E 1003,2 50 0,0
04.07.2020 00:00:00 8,7 6,3 - 9 5 - - ENE 1003,2 50 0,0
03.07.2020 23:00:00 8,6 5,2 - 9 5 - - E 1003,3 50 0,0
03.07.2020 22:00:00 10,5 5,5 - 9 5 - - E 1003,4 50 0,0
03.07.2020 21:00:00 11,5 5,4 - 13 7 - - E 1003,7 45 0,0
03.07.2020 20:00:00 11,7 5,4 - 11 6 - - E 1003,8 40 0,0
03.07.2020 19:00:00 11,2 4,9 - 13 7 - - ESE 1003,9 45 0,0
03.07.2020 18:00:00 11,6 5,1 - 13 7 - - ESE 1003,8 50 0,0
03.07.2020 17:00:00 11,7 5,4 - 15 8 - - E 1003,9 27 0,0
03.07.2020 16:00:00 11,3 5,1 - 15 8 - - ESE 1004,2 30 0,0
03.07.2020 15:00:00 11,8 5,5 - 15 8 - - ESE 1004,4 50 0,0
03.07.2020 14:00:00 11,9 5,7 - 15 8 - - ESE 1004,3 23 0,0
03.07.2020 13:00:00 12,0 6,8 - 13 7 - - ESE 1004,2 28 0,0
03.07.2020 12:00:00 10,5 5,1 - 11 6 - - E 1004,4 50 0,0
03.07.2020 11:00:00 10,9 5,6 - 13 7 - - ENE 1004,3 40 0,0
03.07.2020 10:00:00 11,4 4,8 13,4 9 5 - - N 1004,4 35 0,0
03.07.2020 09:00:00 10,7 4,9 - 11 6 - - WNW 1004,5 50 0,0
03.07.2020 08:00:00 10,1 5,1 - 11 6 - - W 1004,4 45 0,0

tt = Température de l'air
td = dewpoint
tt -20cm = Température de l'air -20cm
ff = Vitesse du vent
fx = gusts
dd = Direction du vent
ppp = reduced air pressure
vv = visibility
rr = Quantités de précipitations

stations d'obs. à proximité